Location: Praha
(50.0830°N, 14.4670°E)
Time: 14:21:18
(UTC+02:00)

ISS - Pass Details

Date: 01 May 2019
Orbit: 408 x 410 km, 51.6° (Epoch: 18 April)

Event Time Altitude Azimuth Distance (km) Brightness Sun altitude
Exits shadow 04:30:39 - 184° (S) 1,706 -1.1 -10.2°
Reaches altitude 10° 04:31:33 10° 173° (S) 1,468 -1.3 -10.1°
Maximum altitude 04:33:25 14° 138° (SE) 1,229 -1.3 -9.8°
Drops below altitude 10° 04:35:19 10° 103° (ESE) 1,474 -0.4 -9.6°
Sets 04:38:05 0° 78° (ENE) 2,339 1.4 -9.2°
